"Pseudo-MPEC" for 2022-168A = NORAD 54696 = Hakuto-R
Created 2023 Mar 5 23:57:08 UT using Find_Orb
Click here for an explanation of pseudo-MPECs
Some discussion of this object occurred on MPML (see some of the preceding messages as well). Also, Edgar Kaiser has observed radio data from Hakuto-R.
Astrometry:
C3L0GC1*1C2023 03 01.27187211 00 50.044+13 41 27.67 ~31CI 18.68GVNEOCP703
C3L0GC1 1C2023 03 01.27718911 00 52.513+13 40 56.82 ~31CI 18.67GVNEOCP703
C3L0GC1 1C2023 03 01.28156011 00 54.601+13 40 30.90 ~31CI 18.56GVNEOCPG96
C3L0GC1 1C2023 03 01.28710311 00 57.132+13 39 58.57 ~31CI 17.17GVNEOCPG96
C3L0GC1 1C2023 03 01.28784911 00 57.406+13 39 54.72 ~31CI VNEOCP703
C3L0GC1 1C2023 03 01.29172911 00 59.224+13 39 31.07 ~31CI 18.65GVNEOCPG96
C3L0GC1 1C2023 03 01.29264911 00 59.634+13 39 25.60 ~31CI 18.57GVNEOCPG96
C3L0GC1 1C2023 03 01.29727711 01 01.697+13 38 57.77 ~31CI 18.96GVNEOCPG96
C3L0GC1 1C2023 03 01.29819311 01 02.114+13 38 52.22 ~31CI 18.89GVNEOCPG96
C3L0GC1 1C2023 03 01.30282311 01 04.156+13 38 23.93 ~31CI 19.10GVNEOCPG96
C3L0GC1 mC2023 03 01.38046811 01 38.536+13 29 45.13 ~31CI 19.06GVNEOCPV06
C3L0GC1 mC2023 03 01.38065911 01 38.611+13 29 43.76 ~31CI 18.93GVNEOCPV06
C3L0GC1 mC2023 03 01.38085411 01 38.723+13 29 42.40 ~31CI 19.25GVNEOCPV06
C3L0GC1 mC2023 03 01.38105011 01 38.809+13 29 40.42 ~31CI 19.11GVNEOCPV06
C3L0GC1 KC2023 03 01lQHIeGB=P!c)#WnXI,\iyk]Ppgo?(a]Zc`ye)p;^3oA7jI)v+sOvG34
C3L0GC1 KC2023 03 01V%FwteZ6nScmF=3*Q\hbp7lFv?vMu!MMAstrometryvm-fo!?2H^G34
C3L0GC1 KC2023 03 01XeK=.C^redacted;pmO9[5-1kZ^A'k-QFLcndBYj9Px\hH)revxFG34
C3L0GC1 KC2023 03 01.89291111 12 15.516+12 22 55.57 19.23G K80
C3L0GC1 KC2023 03 012_1W?ox!:+R`1;TP7h@Prf`@I2click+Fd,2I=iC3gDMLvh77BA)J57
C3L0GC1 KC2023 03 01daYhere\YwI/for_otk'C/Jfv70#=`kUxhv[R8:5qn2Ku1goImesJ57
C3L0GC1 KC2023 03 013aeD?(^explanation076xhqQf@QZ,WR'htwDCDdW%[!Dd:/UP-CJ57
C3L0GC1 KC2023 03 01.96069011 13 01.324+12 15 33.48 19.60G K80
C3L0GC1 1C2023 03 01.96658211 13 39.146+12 21 14.48 18.7 GV Z84
C3L0GC1 1C2023 03 01.96702611 13 39.424+12 21 11.85 18.7 GV Z84
C3L0GC1 1C2023 03 01.96746811 13 39.661+12 21 09.09 19.1 GV Z84
Station data:
(703) Catalina Sky Survey (N32.417003 W110.732640) US/Arizona. Observer R.
A. Kowalski. Measurers E. J. Christensen, D. Fay, J. B. Fazekas, D. C.
Fuls, A. R. Gibbs, A. D. Grauer, H. Gröller, J. K. Hogan, R. A. Kowalski,
S. M. Larson, G. J. Leonard, D. Rankin, R. L. Seaman, A. Serrano, F. C.
Shelly, K. W. Wierzchoś. 0.68-m Schmidt + 10K CCD.
(G34) Oberfrauendorf (N50.860289 E13.701403) Germany. Observer T. Felber.
0.35-m f/6.3 Schmidt-Cassegrain + CCD.
(G96) Mt. Lemmon Survey (N32.442751 W110.788720) US/Arizona. Observer K.
W. Wierzchoś. Measurers E. J. Christensen, D. Fay, J. B. Fazekas, D. C.
Fuls, A. R. Gibbs, A. D. Grauer, H. Gröller, J. K. Hogan, R. A. Kowalski,
S. M. Larson, G. J. Leonard, D. Rankin, R. L. Seaman, A. Serrano, F. C.
Shelly, K. W. Wierzchoś. 1.5-m reflector + 10K CCD.
(J57) Centro Astronómico Alto Turia, Valencia (N39.950156 W1.109110) Spain.
Observer A. Fornas. Measurers E. Arce, V. Mas, G. Fornas. 0.43-m f/6.8
reflector + CCD.
(K80) Platanus Observatory, Lusówko (N52.442298 E16.637330) Poland.
Observer T. Kluwak. 0.28-m f/2.2 Schmidt astrograph + CCD.
(V06) Catalina Sky Survey-Kuiper (N32.416844 W110.732550) US/Arizona.
Observers T. A. Pruyne, B. M. Africano, E. J. Christensen, G. A. Farneth,
D. C. Fuls, A. R. Gibbs, A. D. Grauer, H. Gröller, J. A. Johnson, R. A.
Kowalski, S. M. Larson, G. J. Leonard, D. Rankin, R. L. Seaman, F. C.
Shelly, K. W. Wierzchoś. 1.55-m reflector + CCD.
(Z84) Calar Alto-Schmidt (N37.223981 W2.548143) Spain. Observer M. Micheli.
Measurers E. Schwab, D. Koschny, M. Micheli. 0.8-m f/3 Schmidt + CCD.
Orbital elements: 2022-168A = NORAD 54696 = Hakuto-R
Perigee 2023 Mar 13.764954 +/- 0.0414 TT = 18:21:32.0 (JD 2460017.264954)
Epoch 2023 Mar 2.0 TT = JDT 2460005.5 Find_Orb
M 312.460685608 +/- 0.44 (J2000 equator)
n 4.040756489 +/- 0.0234 Peri. 246.336613 +/- 0.14
a842613.4492 +/- 3254 Node 15.559340 +/- 0.0013
e 0.42456505 +/- 0.00317 Incl. 25.922674 +/- 0.0009
P 89.09d H 30.15 G 0.15 U 10.2
q 484869.2213 +/- 1e+3 Q 0.008023895 +/- 4.85e-5
From 25 observations 2023 Mar. 1 (16.7 hr); mean residual 0".250
Orbital elements (lunar approach): 2022-168A = NORAD 54696 = Hakuto-R
Perilune 2023 Mar 21.071574 +/- 0.262 TT = 1:43:03.9 (JD 2460024.571574)
Epoch 2023 Mar 21.0 TT = JDT 2460024.5 Find_Orb
M 354.952834154 +/- 18 (J2000 ecliptic)
n 70.517009516 +/- 0.944 Peri. 22.302432 +/- 1.9
a 28909.66464 +/- 258 Node 148.879857 +/- 2.9
e 0.93580802 +/- 0.0117 Incl. 91.523357 +/- 3.4
P7351.28m/5.105d H 30.15 G 0.15 U 12.7
q 1855.768468 +/- 354 Q 55963.56082 +/- 186
From 25 observations 2023 Mar. 1 (16.7 hr); mean residual 0".250
